COSMOS 2491 DEB, 57552

Orbit data source: Space-Track

COSMOS 2491 DEB, 57552 is space debris in LEO originally from a launch on Wed, 25 Dec 2013 UTC launched from the Plesetsk Missile And Space Complex (PKMTR). Debris objects in space refer to the collection of defunct objects orbiting the Earth. Examples of debris include non-operational satellites, rocket bodies, and fragments generated from explosions, collisions, or faulty payload assembly.

Loading next visibility...
Identifier
57552, 2013-076AP
Orbit
LEO
Country
Flag of CISCIS
Related business
Manufacturer
TsNIIKhM
Mission
Spacecraft
Bus & Motor
Unknown
Mass
Unknown
Launch date (UTC)
2013-12-25 (13 years ago)
Launch vehicle
Unknown
Launch site
Plesetsk Missile And Space Complex (PKMTR)
Object type
Payload
Rocket body
Debris
Shape & HBR
Unknown shape, 0.1 m
Radar Cross Section
Small (<0.1 m²)

Expand to show TLE details & history
Last TLE update: 1 month ago

TLE from 1 month ago
0 COSMOS 2491 DEB
1 57552U 13076AP  26234.20748770  .00002344  00000-0  10170-1 0  9996
2 57552  82.4353  54.0261 0186316 312.6358  45.9160 12.75500916152900
Epoch: 2026-08-22T04:58Z
TLE epoch observation values (Epoch: 2026-08-22T04:58:46.937Z)
Latitude
-0.00003°
Longitude
8.80932°
Altitude
1,263.457 km
Speed
7.27 km/s
True Right ascension
03h 36m 06s
True Declination
0° 00' 00"
Sunlit
Object was in daylight at epoch
Visualization orbit readout
Latitude
Unknown
Longitude
Unknown
Altitude
Unknown
Speed
Unknown
Apparent Right ascension
Unknown
Apparent Declination
Unknown
Sunlit
N/A
Visualization observer readout
Local Sidereal Time
01:12:45
Azimuth
Unknown
Elevation
Unknown
Doppler factor
Unknown
Orbital elements
Apogee altitude
1,501.035 km
Perigee altitude
1,212.802 km
Semi-major axis
7,735.055 km
Eccentricity
0.01863
Inclination
82.4353°
RAAN
54.0261°
Arg. of periapsis
312.6358°
True anomaly
47.47468°
Mean anomaly
45.916°
Eccentric anomaly
46.69281°
Mean motion
3.19042 °/min
Orbital period
112.84 mins
BSTAR
0.01017
Loading maneuver chart data...
Computing Atmospheric mass density...
Loading historical data...
Loading historical data...
Loading historical data...
Loading historical data...
Loading historical data...
Loading historical data...
Loading historical data...

Documentation

Showing up to 5 results
|